User: anonymous   Login
Location: Betra
(48.4113°N, 8.6634°E)
Time: 11:00:18
(UTC+00:00)
Language:

Nimbus 7 Rocket - Orbit

View from above orbital plane
View from above orbital plane
View from above satellite
View from above satellite

Ground track
Ground track

The orbit data is extracted from the following two-line orbital elements,

1 11081U 78098B   24200.81365000  .00000135  00000-0  15641-3 0  9993
2 11081  99.3757 123.0037 0028268 218.1680 141.7474 13.85912291151063
Epoch (UTC): 18 July 2024 19:31:39
Eccentricity: 0.0028268
inclination: 99.3757°
perigee height: 922 km
apogee height: 963 km
right ascension of ascending node: 123.0037°
argument of perigee: 218.1680°
revolutions per day: 13.85912291
mean anomaly at epoch: 141.7474°
orbit number at epoch: 15106

The dashed part of the orbit path shows where the satellite is in the earth's shadow,  

DLR